Regional Weather Roundup
Issued by NWS

Home | Current Version | Previous Version | Text Only | Print | Product List | Glossary On
Versions: 1 2 3 4 5 6 7 8 9 10 11 12 13 14 15 16 17 18 19 20 21 22 23 24 25 26 27 28 29 30 31 32 33 34 35 36 37 38 39 40 41 42 43 44 45 46 47 48 49 50
000
ASUS44 KMEG 190710
RWRTN
TENNESSEE HOURLY STATE WEATHER ROUNDUP
NATIONAL WEATHER SERVICE MEMPHIS TN
200 AM CDT SAT APR 19 2014

TNZ002-004-019-021-049-052-054-088>092-190800-
WEST TENNESSEE

CITY           SKY/WX    TMP DP  RH WIND       PRES   REMARKS
MEMPHIS INTL   PTCLDY    58  51  78 CALM      30.18F
NWS MEMPHIS      N/A     53 N/A N/A MISG        N/A
JACKSON        MOCLDY    51  48  89 CALM      30.19S
DYERSBURG      PTCLDY    54  43  66 CALM      30.21S
UNION CITY     CLEAR     52  50  93 N3        30.19S
PARIS          MOCLDY    47  43  86 CALM      30.20S
LEXINGTON      CLEAR     52  46  82 CALM      30.18S
SAVANNAH       MOCLDY    48  48 100 CALM      30.18F
$$

TNZ008-025-027-028-033-062-065-066-190800-
NORTH MIDDLE TENNESSEE

CITY           SKY/WX    TMP DP  RH WIND       PRES   REMARKS
NASHVILLE      MOCLDY    51  47  86 CALM      30.17F
DICKSON        MOCLDY    50  45  81 CALM      30.18S
PORTLAND       MOCLDY    48  46  93 CALM      30.17F
CLARKSVILLE    MOCLDY    53  45  74 NW3       30.19S
SMYRNA         MOCLDY    50  48  92 CALM      30.18S
MURFREESBORO   MOCLDY    53  47  80 CALM      30.16F
COOKEVILLE     CLEAR     45  43  93 CALM      30.14F
LIVINGSTON     MOCLDY    53  42  66 N5        30.17F
GALLATIN       MOCLDY    54  47  77 N3        30.18S
CROSSVILLE     MOCLDY    52  38  58 N5        30.16F
$$

TNZ061-075-076-078-094-096-097-190800-
SOUTH MIDDLE TENNESSEE

CITY           SKY/WX    TMP DP  RH WIND       PRES   REMARKS
LEWISBURG      MOCLDY    47  45  93 CALM      30.16F
FAYETTEVILLE   MOCLDY    50  44  79 N7        30.14F
TULLAHOMA      CLEAR     48  45  87 CALM      30.16S
WINCHESTER     CLEAR     45  43  93 CALM      30.15F
MCMINNVILLE    CLEAR     46  46 100 CALM      30.15F
COLUMBIA       CLEAR     48  48 100 CALM      30.16S
SHELBYVILLE    MOCLDY    48  46  93 NW5       30.16F
$$

TNZ017-018-042-046-047-190800-
NORTHEAST TENNESSEE

CITY           SKY/WX    TMP DP  RH WIND       PRES   REMARKS
TRI CITIES     CLOUDY    50  38  63 CALM      30.16F
ELIZABETHTON   MOSUNNY   48  41  76 CALM      30.16F
$$

TNZ012-013-036-069-073-074-190800-
CENTRAL EAST TENNESSEE

CITY           SKY/WX    TMP DP  RH WIND       PRES   REMARKS
KNOXVILLE      CLOUDY    53  40  61 NE3       30.11
OAK RIDGE      CLOUDY    52  42  69 NE5       30.14F
$$

TNZ083-085-099-190800-
SOUTHEAST TENNESSEE

CITY           SKY/WX    TMP DP  RH WIND       PRES   REMARKS
CHATTANOOGA    CLOUDY    54  47  77 CALM      30.13F
$$

SKY/WX REPORTED AS FAIR MEANS FEW OR NO CLOUDS BELOW
12 THOUSAND FEET.




USA.gov is the U.S. government's official web portal to all federal, state and local government web resources and services.